SAS4637 ENGM-LGAV

Flight info

Callsign SAS4637
Flight time 3h 22m
Altitude 35000
Route OKSAT L996 KELIN DCT POKEN DCT GOMEX DCT DENKO L616 MISKA DCT DESEN DCT MAKAL DCT PARAK DCT OBLAK DCT NISVA DCT VANET DCT NIKTI DCT STINO/N0456F320 UT162 NEVRA
Aircraft A320/M-SDE3FGHIRWY/LB1

Departure

Time 2026-05-05 20:01
Airport Oslo-Gardermoen International Airport (ENGM)

Arrival

Time 2026-05-05 23:23
Airport Athens Eleftherios Venizelos International Airport (LGAV)
Time Latitude Longitude Altitude Speed Heading
2026-05-05 19:07 60.19602 11.10174 685 ft 0 kts 286°
2026-05-05 19:44 60.19602 11.10177 685 ft 2 kts 286°
2026-05-05 19:45 60.19595 11.10226 685 ft 4 kts 286°
2026-05-05 19:45 60.19590 11.10263 685 ft 0 kts 286°
2026-05-05 19:51 60.19592 11.10255 685 ft 3 kts 296°
2026-05-05 19:51 60.19617 11.10291 683 ft 9 kts 70°
2026-05-05 19:51 60.19642 11.10409 679 ft 9 kts 53°
2026-05-05 19:52 60.19718 11.10477 684 ft 16 kts 15°
2026-05-05 19:52 60.19841 11.10548 682 ft 18 kts 15°
2026-05-05 19:52 60.19902 11.10496 683 ft 0 kts 293°
2026-05-05 19:53 60.19904 11.10487 682 ft 4 kts 291°
2026-05-05 19:53 60.19924 11.10349 685 ft 16 kts 285°
2026-05-05 19:53 60.19963 11.10085 684 ft 23 kts 287°
2026-05-05 19:53 60.20003 11.09798 684 ft 22 kts 285°
2026-05-05 19:54 60.20044 11.09505 682 ft 21 kts 285°
2026-05-05 19:54 60.20086 11.09232 679 ft 20 kts 287°
2026-05-05 19:54 60.20120 11.08981 679 ft 16 kts 287°
2026-05-05 19:54 60.20066 11.08839 680 ft 14 kts 196°
2026-05-05 19:55 60.19975 11.08786 680 ft 13 kts 197°
2026-05-05 19:55 60.19893 11.08738 679 ft 11 kts 196°
2026-05-05 19:55 60.19820 11.08697 679 ft 11 kts 195°
2026-05-05 19:55 60.19749 11.08657 679 ft 10 kts 196°
2026-05-05 19:56 60.19659 11.08604 678 ft 18 kts 195°
2026-05-05 19:56 60.19521 11.08524 678 ft 21 kts 197°
2026-05-05 19:56 60.19396 11.08452 676 ft 19 kts 196°
2026-05-05 19:56 60.19274 11.08383 674 ft 18 kts 196°
2026-05-05 19:57 60.19160 11.08317 673 ft 16 kts 196°
2026-05-05 19:57 60.19053 11.08256 673 ft 16 kts 196°
2026-05-05 19:57 60.18948 11.08195 672 ft 16 kts 196°
2026-05-05 19:57 60.18844 11.08136 672 ft 16 kts 195°
2026-05-05 19:58 60.18783 11.08102 671 ft 8 kts 195°
2026-05-05 19:58 60.18717 11.08065 670 ft 13 kts 195°
2026-05-05 19:58 60.18599 11.07992 670 ft 16 kts 196°
2026-05-05 19:58 60.18540 11.07856 667 ft 16 kts 278°
2026-05-05 19:59 60.18569 11.07675 665 ft 14 kts 288°
2026-05-05 19:59 60.18594 11.07493 665 ft 13 kts 284°
2026-05-05 19:59 60.18611 11.07433 666 ft 2 kts
2026-05-05 19:59 60.18623 11.07445 666 ft 0 kts 18°
2026-05-05 20:00 60.18660 11.07468 666 ft 23 kts 17°
2026-05-05 20:00 60.19056 11.07695 668 ft 92 kts 15°
2026-05-05 20:00 60.19856 11.08157 675 ft 145 kts 16°
2026-05-05 20:01 60.20933 11.08777 862 ft 171 kts 15°
2026-05-05 20:01 60.22083 11.09436 1623 ft 170 kts 13°
2026-05-05 20:01 60.23239 11.10089 2164 ft 181 kts 12°
2026-05-05 20:01 60.24497 11.10777 2482 ft 198 kts 12°
2026-05-05 20:02 60.25804 11.11983 2778 ft 222 kts 38°
2026-05-05 20:02 60.26815 11.14592 3067 ft 251 kts 54°
2026-05-05 20:02 60.27794 11.17640 3695 ft 262 kts 55°
2026-05-05 20:02 60.28777 11.20749 4611 ft 265 kts 55°
2026-05-05 20:03 60.29767 11.23907 5458 ft 268 kts 56°
2026-05-05 20:03 60.30760 11.27111 6283 ft 271 kts 59°
2026-05-05 20:03 60.31349 11.30757 7011 ft 278 kts 84°
2026-05-05 20:03 60.31113 11.34634 7737 ft 283 kts 111°
2026-05-05 20:04 60.30049 11.37950 8481 ft 285 kts 139°
2026-05-05 20:04 60.28361 11.40007 9237 ft 284 kts 164°
2026-05-05 20:04 60.26466 11.41156 10013 ft 286 kts 166°
2026-05-05 20:04 60.24492 11.42317 10306 ft 307 kts 166°
2026-05-05 20:05 60.22368 11.43565 10458 ft 329 kts 166°
2026-05-05 20:05 60.20094 11.44907 10613 ft 351 kts 166°
2026-05-05 20:05 60.17719 11.46322 11046 ft 360 kts 166°
2026-05-05 20:05 60.15296 11.47773 11657 ft 365 kts 166°
2026-05-05 20:06 60.12849 11.49242 12273 ft 370 kts 166°
2026-05-05 20:06 60.10375 11.50727 12880 ft 374 kts 166°
2026-05-05 20:06 60.07864 11.52224 13473 ft 378 kts 166°
2026-05-05 20:06 60.05326 11.53736 14024 ft 383 kts 166°
2026-05-05 20:07 60.02757 11.55263 14545 ft 387 kts 167°
2026-05-05 20:07 60.00163 11.56799 15082 ft 391 kts 168°
2026-05-05 20:07 59.97536 11.58348 15596 ft 395 kts 168°
2026-05-05 20:07 59.94891 11.59903 16071 ft 398 kts 169°
2026-05-05 20:08 59.92213 11.61478 16519 ft 403 kts 171°
2026-05-05 20:08 59.89502 11.63069 16980 ft 409 kts 171°
2026-05-05 20:08 59.86796 11.64663 17486 ft 412 kts 171°
2026-05-05 20:08 59.84040 11.66277 17933 ft 416 kts 172°
2026-05-05 20:09 59.81251 11.67910 18378 ft 419 kts 172°
2026-05-05 20:09 59.78440 11.69547 18794 ft 422 kts 172°
2026-05-05 20:09 59.75619 11.71185 19226 ft 424 kts 173°
2026-05-05 20:09 59.72775 11.72837 19656 ft 426 kts 173°
2026-05-05 20:10 59.69925 11.74494 20076 ft 429 kts 173°
2026-05-05 20:10 59.67055 11.76161 20490 ft 432 kts 173°
2026-05-05 20:10 59.64162 11.77839 20845 ft 433 kts 173°
2026-05-05 20:10 59.61257 11.79523 21273 ft 435 kts 173°
2026-05-05 20:11 59.58346 11.81205 21698 ft 436 kts 173°
2026-05-05 20:11 59.55433 11.82882 22123 ft 437 kts 173°
2026-05-05 20:11 59.52506 11.84564 22510 ft 439 kts 174°
2026-05-05 20:11 59.49567 11.86248 22889 ft 441 kts 174°
2026-05-05 20:12 59.46612 11.87934 23251 ft 443 kts 174°
2026-05-05 20:12 59.43641 11.89624 23590 ft 445 kts 174°
2026-05-05 20:12 59.40659 11.91318 23897 ft 447 kts 174°
2026-05-05 20:12 59.37664 11.93020 24220 ft 449 kts 174°
2026-05-05 20:13 59.34654 11.94591 24526 ft 444 kts 179°
2026-05-05 20:13 59.31624 11.95364 24787 ft 434 kts 187°
2026-05-05 20:13 59.28639 11.95277 25098 ft 427 kts 193°
2026-05-05 20:13 59.25660 11.95014 25391 ft 433 kts 188°
2026-05-05 20:14 59.22669 11.95200 25667 ft 437 kts 187°
2026-05-05 20:14 59.19582 11.95483 25950 ft 439 kts 186°
2026-05-05 20:14 59.16525 11.95822 26219 ft 441 kts 186°
2026-05-05 20:14 59.13491 11.96185 26492 ft 443 kts 186°
2026-05-05 20:15 59.10413 11.96554 26752 ft 444 kts 186°
2026-05-05 20:15 59.07321 11.96911 27006 ft 445 kts 186°
2026-05-05 20:15 59.04224 11.97250 27193 ft 447 kts 186°
2026-05-05 20:15 59.01114 11.97580 27449 ft 448 kts 186°
2026-05-05 20:16 58.97998 11.97907 27703 ft 449 kts 186°
2026-05-05 20:16 58.94882 11.98230 28019 ft 448 kts 186°
2026-05-05 20:16 58.91772 11.98554 28378 ft 447 kts 186°
2026-05-05 20:16 58.88666 11.98875 28726 ft 447 kts 186°
2026-05-05 20:17 58.85566 11.99191 29089 ft 445 kts 186°
2026-05-05 20:17 58.82481 11.99503 29450 ft 444 kts 186°
2026-05-05 20:17 58.79394 11.99815 29811 ft 443 kts 186°
2026-05-05 20:17 58.76312 12.00131 30146 ft 443 kts 186°
2026-05-05 20:18 58.73242 12.00451 30386 ft 442 kts 186°
2026-05-05 20:18 58.70168 12.00772 30666 ft 441 kts 186°
2026-05-05 20:18 58.67102 12.01090 30947 ft 441 kts 186°
2026-05-05 20:18 58.64042 12.01406 31226 ft 440 kts 186°
2026-05-05 20:19 58.60986 12.01725 31490 ft 440 kts 186°
2026-05-05 20:19 58.57934 12.02038 31764 ft 439 kts 186°
2026-05-05 20:19 58.54881 12.02345 32055 ft 439 kts 186°
2026-05-05 20:19 58.51834 12.02652 32344 ft 439 kts 186°
2026-05-05 20:20 58.48789 12.02961 32615 ft 438 kts 186°
2026-05-05 20:20 58.45746 12.03392 32822 ft 443 kts 179°
2026-05-05 20:20 58.42739 12.05060 33122 ft 456 kts 167°
2026-05-05 20:20 58.39784 12.07301 33400 ft 456 kts 167°
2026-05-05 20:21 58.36877 12.09540 33680 ft 456 kts 166°
2026-05-05 20:21 58.33944 12.11821 33963 ft 455 kts 166°
2026-05-05 20:21 58.31020 12.14093 34192 ft 454 kts 166°
2026-05-05 20:21 58.28090 12.16356 34406 ft 454 kts 166°
2026-05-05 20:22 58.25161 12.18603 34607 ft 454 kts 166°
2026-05-05 20:22 58.22220 12.20844 34822 ft 454 kts 166°
2026-05-05 20:22 58.19283 12.23074 34941 ft 456 kts 166°
2026-05-05 20:23 58.13382 12.27548 34970 ft 458 kts 166°
2026-05-05 20:23 58.07468 12.32037 34971 ft 458 kts 166°
2026-05-05 20:24 58.01554 12.36501 34967 ft 458 kts 166°
2026-05-05 20:24 57.95635 12.40954 34964 ft 458 kts 166°
2026-05-05 20:25 57.89710 12.45395 34964 ft 458 kts 166°
2026-05-05 20:25 57.83785 12.49824 34925 ft 458 kts 166°
2026-05-05 20:26 57.77855 12.54239 34945 ft 458 kts 166°
2026-05-05 20:26 57.71936 12.58627 34951 ft 457 kts 166°
2026-05-05 20:27 57.66017 12.63007 34980 ft 457 kts 166°
2026-05-05 20:27 57.60101 12.67367 34974 ft 457 kts 166°
2026-05-05 20:28 57.54211 12.71689 34922 ft 457 kts 166°
2026-05-05 20:28 57.48291 12.76009 34951 ft 457 kts 166°
2026-05-05 20:29 57.42367 12.80322 34963 ft 457 kts 166°
2026-05-05 20:29 57.36447 12.84624 34966 ft 457 kts 166°
2026-05-05 20:30 57.30527 12.88908 34969 ft 457 kts 166°
2026-05-05 20:30 57.24600 12.93176 34932 ft 456 kts 166°
2026-05-05 20:31 57.18688 12.97430 34956 ft 456 kts 166°
2026-05-05 20:31 57.12778 13.01650 34964 ft 455 kts 166°
2026-05-05 20:32 57.06872 13.05869 34969 ft 455 kts 166°
2026-05-05 20:32 57.01962 13.09369 34958 ft 455 kts 166°
2026-05-05 20:33 56.95106 13.14234 34925 ft 455 kts 166°
2026-05-05 20:33 56.90159 13.17732 34951 ft 454 kts 166°
2026-05-05 20:34 56.84263 13.21891 34962 ft 454 kts 166°
2026-05-05 20:34 56.78370 13.26027 34967 ft 454 kts 166°
2026-05-05 20:35 56.72513 13.30115 34966 ft 453 kts 166°
2026-05-05 20:35 56.66618 13.34228 34967 ft 453 kts 166°
2026-05-05 20:36 56.60730 13.38319 34945 ft 453 kts 166°
2026-05-05 20:36 56.54847 13.42387 34932 ft 452 kts 166°
2026-05-05 20:37 56.48957 13.46456 34958 ft 453 kts 165°
2026-05-05 20:37 56.43071 13.50513 34961 ft 452 kts 165°
2026-05-05 20:38 56.37189 13.54548 34958 ft 452 kts 166°
2026-05-05 20:38 56.31311 13.58558 34940 ft 451 kts 165°
2026-05-05 20:39 56.25445 13.62552 34940 ft 451 kts 165°
2026-05-05 20:39 56.19601 13.66522 34940 ft 451 kts 165°
2026-05-05 20:40 56.13738 13.70506 34949 ft 451 kts 165°
2026-05-05 20:40 56.07868 13.74470 34951 ft 451 kts 165°
2026-05-05 20:41 56.01994 13.78415 34903 ft 451 kts 166°
2026-05-05 20:41 55.96112 13.82354 34915 ft 452 kts 166°
2026-05-05 20:42 55.90214 13.86290 34918 ft 453 kts 166°
2026-05-05 20:42 55.84315 13.90225 34933 ft 453 kts 166°
2026-05-05 20:43 55.78420 13.94146 34934 ft 453 kts 166°
2026-05-05 20:43 55.72514 13.98052 34932 ft 453 kts 166°
2026-05-05 20:44 55.66610 14.01926 34930 ft 453 kts 166°
2026-05-05 20:44 55.60710 14.05806 34933 ft 452 kts 166°
2026-05-05 20:45 55.51849 14.11614 34909 ft 452 kts 167°
2026-05-05 20:45 55.45954 14.15469 34894 ft 452 kts 167°
2026-05-05 20:46 55.40101 14.19274 34919 ft 451 kts 167°
2026-05-05 20:46 55.34214 14.23087 34928 ft 451 kts 167°
2026-05-05 20:47 55.28330 14.26887 34934 ft 450 kts 167°
2026-05-05 20:47 55.22450 14.30679 34930 ft 450 kts 167°
2026-05-05 20:48 55.16571 14.34452 34927 ft 450 kts 167°
2026-05-05 20:48 55.10691 14.38221 34924 ft 449 kts 168°
2026-05-05 20:49 55.04819 14.41972 34899 ft 450 kts 168°
2026-05-05 20:49 54.98939 14.45707 34904 ft 450 kts 168°
2026-05-05 20:50 54.93093 14.49408 34909 ft 450 kts 168°
2026-05-05 20:50 54.87218 14.53114 34895 ft 449 kts 168°
2026-05-05 20:51 54.81341 14.56807 34907 ft 449 kts 168°
2026-05-05 20:51 54.75481 14.60542 34916 ft 449 kts 168°
2026-05-05 20:52 54.69638 14.64306 34914 ft 448 kts 168°
2026-05-05 20:52 54.63784 14.68069 34913 ft 448 kts 168°
2026-05-05 20:53 54.57933 14.71789 34901 ft 448 kts 167°
2026-05-05 20:53 54.52074 14.75492 34915 ft 448 kts 167°
2026-05-05 20:54 54.46217 14.79191 34920 ft 448 kts 167°
2026-05-05 20:54 54.40396 14.82861 34918 ft 448 kts 167°
2026-05-05 20:55 54.34543 14.86542 34882 ft 448 kts 167°
2026-05-05 20:55 54.28698 14.90210 34900 ft 447 kts 167°
2026-05-05 20:56 54.22862 14.93860 34908 ft 446 kts 167°
2026-05-05 20:56 54.17033 14.97485 34912 ft 446 kts 167°
2026-05-05 20:57 54.11197 15.01096 34888 ft 446 kts 167°
2026-05-05 20:57 54.05356 15.04711 34870 ft 446 kts 167°
2026-05-05 20:58 53.99520 15.08317 34880 ft 446 kts 167°
2026-05-05 20:58 53.93675 15.11909 34881 ft 446 kts 167°
2026-05-05 20:59 53.87872 15.15460 34883 ft 446 kts 167°
2026-05-05 20:59 53.82003 15.19055 34884 ft 446 kts 167°
2026-05-05 21:00 53.76205 15.22607 34861 ft 445 kts 166°
2026-05-05 21:00 53.70379 15.26197 34869 ft 446 kts 166°
2026-05-05 21:01 53.64583 15.29998 34867 ft 448 kts 165°
2026-05-05 21:01 53.58795 15.33867 34872 ft 447 kts 165°
2026-05-05 21:02 53.53006 15.37675 34867 ft 447 kts 165°
2026-05-05 21:02 53.47214 15.41435 34850 ft 446 kts 165°
2026-05-05 21:03 53.41440 15.45167 34868 ft 446 kts 165°
2026-05-05 21:03 53.35660 15.48903 34867 ft 445 kts 165°
2026-05-05 21:04 53.29883 15.52613 34866 ft 445 kts 165°
2026-05-05 21:04 53.24103 15.56316 34849 ft 445 kts 165°
2026-05-05 21:05 53.18341 15.60004 34831 ft 445 kts 164°
2026-05-05 21:05 53.12547 15.63709 34841 ft 446 kts 164°
2026-05-05 21:06 53.06745 15.67410 34837 ft 446 kts 164°
2026-05-05 21:06 53.00940 15.71095 34839 ft 446 kts 164°
2026-05-05 21:07 52.95138 15.74780 34835 ft 446 kts 164°
2026-05-05 21:07 52.89333 15.78452 34847 ft 446 kts 164°
2026-05-05 21:08 52.83525 15.82100 34826 ft 446 kts 164°
2026-05-05 21:08 52.77747 15.85855 34829 ft 447 kts 162°
2026-05-05 21:09 52.72069 15.89893 34832 ft 447 kts 161°
2026-05-05 21:09 52.66352 15.94003 34832 ft 448 kts 161°
2026-05-05 21:10 52.60649 15.97999 34838 ft 445 kts 162°
2026-05-05 21:10 52.54939 16.01940 34847 ft 445 kts 162°
2026-05-05 21:11 52.49228 16.05894 34848 ft 445 kts 162°
2026-05-05 21:11 52.43530 16.09836 34847 ft 445 kts 162°
2026-05-05 21:12 52.37822 16.13763 34829 ft 445 kts 162°
2026-05-05 21:12 52.32149 16.17661 34830 ft 445 kts 162°
2026-05-05 21:13 52.26431 16.21576 34825 ft 446 kts 162°
2026-05-05 21:13 52.20713 16.25480 34828 ft 446 kts 162°
2026-05-05 21:14 52.14987 16.29378 34829 ft 446 kts 162°
2026-05-05 21:14 52.09264 16.33264 34818 ft 445 kts 161°
2026-05-05 21:15 52.03546 16.37144 34822 ft 445 kts 161°
2026-05-05 21:15 51.97825 16.41003 34806 ft 445 kts 161°
2026-05-05 21:16 51.92099 16.44857 34810 ft 445 kts 161°
2026-05-05 21:16 51.86379 16.48700 34807 ft 445 kts 161°
2026-05-05 21:17 51.80687 16.52515 34807 ft 445 kts 161°
2026-05-05 21:17 51.74963 16.56345 34800 ft 446 kts 161°
2026-05-05 21:18 51.69222 16.60185 34805 ft 446 kts 161°
2026-05-05 21:18 51.63481 16.63996 34797 ft 446 kts 161°
2026-05-05 21:19 51.57733 16.67794 34795 ft 446 kts 161°
2026-05-05 21:19 51.51986 16.71583 34795 ft 447 kts 161°
2026-05-05 21:20 51.46230 16.75381 34794 ft 447 kts 161°
2026-05-05 21:20 51.40461 16.79175 34797 ft 448 kts 161°
2026-05-05 21:21 51.35670 16.82308 34800 ft 448 kts 161°
2026-05-05 21:21 51.29899 16.86082 34789 ft 448 kts 161°
2026-05-05 21:22 51.23193 16.90450 34768 ft 448 kts 160°
2026-05-05 21:22 51.18395 16.93572 34779 ft 447 kts 160°
2026-05-05 21:23 51.12634 16.97305 34787 ft 447 kts 160°
2026-05-05 21:23 51.06872 17.01030 34790 ft 447 kts 160°
2026-05-05 21:24 51.01112 17.04752 34788 ft 447 kts 160°
2026-05-05 21:24 50.95355 17.08464 34793 ft 446 kts 161°
2026-05-05 21:25 50.89606 17.12148 34799 ft 446 kts 161°
2026-05-05 21:25 50.83853 17.15828 34781 ft 446 kts 160°
2026-05-05 21:26 50.78101 17.19496 34786 ft 446 kts 160°
2026-05-05 21:26 50.72342 17.23163 34781 ft 446 kts 160°
2026-05-05 21:27 50.66575 17.26826 34787 ft 446 kts 160°
2026-05-05 21:27 50.60818 17.30480 34797 ft 446 kts 160°
2026-05-05 21:28 50.55059 17.34117 34794 ft 446 kts 161°
2026-05-05 21:28 50.49297 17.37737 34799 ft 446 kts 161°
2026-05-05 21:29 50.43534 17.41348 34801 ft 445 kts 161°
2026-05-05 21:29 50.37816 17.44927 34809 ft 445 kts 161°
2026-05-05 21:30 50.32069 17.48530 34808 ft 445 kts 161°
2026-05-05 21:30 50.26320 17.52127 34816 ft 445 kts 160°
2026-05-05 21:31 50.20588 17.55796 34812 ft 445 kts 160°
2026-05-05 21:31 50.14874 17.59510 34818 ft 445 kts 160°
2026-05-05 21:32 50.09163 17.63206 34808 ft 444 kts 160°
2026-05-05 21:32 50.03452 17.66887 34810 ft 445 kts 160°
2026-05-05 21:33 49.97724 17.70556 34810 ft 446 kts 160°
2026-05-05 21:33 49.91982 17.74213 34809 ft 445 kts 160°
2026-05-05 21:34 49.86247 17.77859 34811 ft 446 kts 160°
2026-05-05 21:34 49.80502 17.81511 34820 ft 446 kts 160°
2026-05-05 21:35 49.74757 17.85161 34828 ft 446 kts 160°
2026-05-05 21:35 49.69007 17.88807 34830 ft 447 kts 160°
2026-05-05 21:36 49.63254 17.92438 34833 ft 447 kts 160°
2026-05-05 21:36 49.57537 17.96032 34833 ft 447 kts 160°
2026-05-05 21:37 49.51785 17.99637 34844 ft 447 kts 160°
2026-05-05 21:37 49.46015 18.03247 34846 ft 447 kts 160°
2026-05-05 21:38 49.40258 18.06845 34827 ft 447 kts 160°
2026-05-05 21:38 49.34491 18.10429 34827 ft 447 kts 161°
2026-05-05 21:39 49.28727 18.14004 34834 ft 447 kts 160°
2026-05-05 21:39 49.22948 18.17596 34850 ft 448 kts 160°
2026-05-05 21:40 49.17217 18.21380 34842 ft 449 kts 158°
2026-05-05 21:40 49.11508 18.25272 34849 ft 449 kts 159°
2026-05-05 21:41 49.05787 18.29109 34864 ft 449 kts 159°
2026-05-05 21:41 49.00053 18.32887 34856 ft 449 kts 159°
2026-05-05 21:42 48.94319 18.36650 34853 ft 449 kts 159°
2026-05-05 21:42 48.88583 18.40414 34861 ft 449 kts 159°
2026-05-05 21:43 48.82857 18.44172 34861 ft 448 kts 159°
2026-05-05 21:43 48.77174 18.47907 34872 ft 448 kts 159°
2026-05-05 21:44 48.71445 18.51667 34868 ft 448 kts 159°
2026-05-05 21:44 48.65721 18.55403 34869 ft 448 kts 159°
2026-05-05 21:45 48.59994 18.59119 34874 ft 448 kts 160°
2026-05-05 21:45 48.54244 18.62831 34879 ft 449 kts 160°
2026-05-05 21:46 48.48502 18.66543 34885 ft 449 kts 159°
2026-05-05 21:46 48.42756 18.70260 34886 ft 449 kts 159°
2026-05-05 21:47 48.37010 18.73961 34908 ft 449 kts 159°
2026-05-05 21:47 48.31270 18.77636 34909 ft 449 kts 159°
2026-05-05 21:48 48.25517 18.81311 34899 ft 449 kts 159°
2026-05-05 21:48 48.19767 18.84990 34907 ft 450 kts 159°
2026-05-05 21:49 48.14007 18.88673 34904 ft 449 kts 159°
2026-05-05 21:49 48.08246 18.92328 34916 ft 449 kts 159°
2026-05-05 21:50 48.02522 18.95948 34921 ft 450 kts 159°
2026-05-05 21:50 47.96764 18.99587 34916 ft 450 kts 159°
2026-05-05 21:51 47.91000 19.03226 34907 ft 450 kts 159°
2026-05-05 21:51 47.85227 19.06860 34909 ft 451 kts 159°
2026-05-05 21:52 47.76552 19.12310 34918 ft 451 kts 159°
2026-05-05 21:53 47.70765 19.15939 34927 ft 451 kts 159°
2026-05-05 21:53 47.64975 19.19540 34932 ft 452 kts 159°
2026-05-05 21:54 47.59169 19.23151 34935 ft 452 kts 159°
2026-05-05 21:54 47.53360 19.26770 34935 ft 452 kts 159°
2026-05-05 21:55 47.47555 19.30371 34938 ft 453 kts 159°
2026-05-05 21:55 47.41738 19.33959 34940 ft 453 kts 159°
2026-05-05 21:56 47.35924 19.37537 34945 ft 453 kts 159°
2026-05-05 21:56 47.30114 19.41105 34945 ft 453 kts 159°
2026-05-05 21:57 47.24299 19.44680 34945 ft 453 kts 159°
2026-05-05 21:57 47.18480 19.48244 34953 ft 453 kts 159°
2026-05-05 21:58 47.12697 19.51778 34964 ft 453 kts 159°
2026-05-05 21:58 47.06879 19.55322 34964 ft 453 kts 159°
2026-05-05 21:59 47.01055 19.58870 34971 ft 453 kts 159°
2026-05-05 21:59 46.95233 19.62415 34964 ft 453 kts 159°
2026-05-05 22:00 46.89406 19.65938 34966 ft 454 kts 159°
2026-05-05 22:00 46.83571 19.69460 34968 ft 454 kts 159°
2026-05-05 22:01 46.77738 19.72973 34976 ft 453 kts 159°
2026-05-05 22:01 46.71893 19.76471 34975 ft 454 kts 159°
2026-05-05 22:02 46.66049 19.79968 34970 ft 454 kts 159°
2026-05-05 22:02 46.60203 19.83473 34966 ft 455 kts 159°
2026-05-05 22:03 46.54347 19.86971 34969 ft 456 kts 160°
2026-05-05 22:03 46.48475 19.90463 34968 ft 456 kts 160°
2026-05-05 22:04 46.42599 19.93954 34966 ft 457 kts 159°
2026-05-05 22:04 46.36720 19.97442 34966 ft 457 kts 159°
2026-05-05 22:05 46.30835 20.00923 34968 ft 457 kts 160°
2026-05-05 22:05 46.24950 20.04388 34971 ft 457 kts 160°
2026-05-05 22:06 46.19054 20.07849 34964 ft 458 kts 160°
2026-05-05 22:06 46.14318 20.11269 34967 ft 460 kts 149°
2026-05-05 22:07 46.07990 20.16945 34968 ft 461 kts 150°
2026-05-05 22:07 46.02526 20.21806 34968 ft 462 kts 150°
2026-05-05 22:08 45.97060 20.26665 34973 ft 462 kts 150°
2026-05-05 22:08 45.92470 20.30741 34956 ft 463 kts 150°
2026-05-05 22:09 45.86977 20.35608 34962 ft 464 kts 150°
2026-05-05 22:09 45.81472 20.40476 34972 ft 465 kts 150°
2026-05-05 22:10 45.75993 20.45305 34976 ft 466 kts 150°
2026-05-05 22:10 45.70468 20.50165 34970 ft 466 kts 150°
2026-05-05 22:11 45.64935 20.55020 34972 ft 467 kts 150°
2026-05-05 22:11 45.59389 20.59880 34975 ft 467 kts 150°
2026-05-05 22:12 45.53853 20.64723 34977 ft 467 kts 150°
2026-05-05 22:12 45.48296 20.69560 34988 ft 467 kts 150°
2026-05-05 22:13 45.42747 20.74380 34973 ft 468 kts 150°
2026-05-05 22:13 45.37187 20.79214 34978 ft 468 kts 150°
2026-05-05 22:14 45.31623 20.84031 34981 ft 469 kts 150°
2026-05-05 22:14 45.26042 20.88850 34995 ft 469 kts 150°
2026-05-05 22:15 45.20537 20.93836 34980 ft 469 kts 148°
2026-05-05 22:15 45.15116 20.98994 34988 ft 470 kts 148°
2026-05-05 22:16 45.09691 21.04136 34986 ft 469 kts 148°
2026-05-05 22:16 45.04231 21.09218 34984 ft 469 kts 148°
2026-05-05 22:17 44.98769 21.14268 34995 ft 469 kts 148°
2026-05-05 22:17 44.93310 21.19322 34987 ft 469 kts 148°
2026-05-05 22:18 44.87889 21.24334 34991 ft 469 kts 148°
2026-05-05 22:18 44.82425 21.29371 34991 ft 469 kts 148°
2026-05-05 22:19 44.76963 21.34383 35004 ft 469 kts 148°
2026-05-05 22:19 44.71486 21.39413 35000 ft 470 kts 148°
2026-05-05 22:20 44.66016 21.44428 35000 ft 470 kts 148°
2026-05-05 22:20 44.60536 21.49440 35005 ft 470 kts 148°
2026-05-05 22:21 44.55055 21.54425 35003 ft 469 kts 148°
2026-05-05 22:21 44.49573 21.59407 35001 ft 470 kts 148°
2026-05-05 22:22 44.44080 21.64393 34990 ft 471 kts 148°
2026-05-05 22:22 44.38575 21.69386 34996 ft 472 kts 148°
2026-05-05 22:23 44.33061 21.74365 35006 ft 472 kts 148°
2026-05-05 22:23 44.27534 21.79342 35008 ft 472 kts 148°
2026-05-05 22:24 44.21995 21.84323 34991 ft 473 kts 148°
2026-05-05 22:24 44.16448 21.89299 35005 ft 475 kts 148°
2026-05-05 22:25 44.10889 21.94271 35001 ft 475 kts 148°
2026-05-05 22:25 44.05325 21.99244 35014 ft 476 kts 148°
2026-05-05 22:26 43.99747 22.04220 35002 ft 476 kts 148°
2026-05-05 22:26 43.94155 22.09172 34998 ft 478 kts 148°
2026-05-05 22:27 43.88578 22.14103 34999 ft 479 kts 148°
2026-05-05 22:27 43.82959 22.19086 35010 ft 480 kts 148°
2026-05-05 22:28 43.77342 22.24066 35009 ft 480 kts 148°
2026-05-05 22:28 43.71705 22.29034 35006 ft 480 kts 148°
2026-05-05 22:29 43.66065 22.33980 35015 ft 480 kts 148°
2026-05-05 22:29 43.60434 22.38929 35028 ft 480 kts 148°
2026-05-05 22:30 43.54780 22.43870 35023 ft 481 kts 148°
2026-05-05 22:30 43.49125 22.48797 35021 ft 481 kts 148°
2026-05-05 22:31 43.43466 22.53728 35029 ft 482 kts 148°
2026-05-05 22:31 43.37795 22.58658 35036 ft 482 kts 148°
2026-05-05 22:32 43.32123 22.63578 35041 ft 483 kts 148°
2026-05-05 22:32 43.26433 22.68502 35034 ft 484 kts 148°
2026-05-05 22:33 43.20742 22.73426 35042 ft 484 kts 148°
2026-05-05 22:33 43.15038 22.78344 35049 ft 485 kts 149°
2026-05-05 22:34 43.09358 22.83216 35056 ft 485 kts 148°
2026-05-05 22:34 43.03625 22.88120 35046 ft 486 kts 148°
2026-05-05 22:35 42.97890 22.93032 35049 ft 487 kts 148°
2026-05-05 22:35 42.92138 22.97935 35058 ft 487 kts 149°
2026-05-05 22:36 42.86379 23.02842 35065 ft 488 kts 148°
2026-05-05 22:36 42.80622 23.07735 35060 ft 488 kts 148°
2026-05-05 22:37 42.74860 23.12626 35054 ft 488 kts 148°
2026-05-05 22:37 42.69089 23.17515 35061 ft 488 kts 149°
2026-05-05 22:38 42.63311 23.22387 35071 ft 489 kts 148°
2026-05-05 22:38 42.57518 23.27263 35068 ft 489 kts 148°
2026-05-05 22:39 42.51738 23.32128 35060 ft 490 kts 148°
2026-05-05 22:39 42.45937 23.36995 35065 ft 490 kts 148°
2026-05-05 22:40 42.40172 23.41816 35074 ft 491 kts 148°
2026-05-05 22:40 42.34358 23.46666 35084 ft 491 kts 149°
2026-05-05 22:41 42.28543 23.51515 35088 ft 491 kts 149°
2026-05-05 22:41 42.22719 23.56355 35088 ft 491 kts 149°
2026-05-05 22:42 42.16898 23.61170 35093 ft 491 kts 149°
2026-05-05 22:42 42.11080 23.65984 35089 ft 491 kts 149°
2026-05-05 22:43 42.05252 23.70805 35084 ft 491 kts 149°
2026-05-05 22:43 41.99431 23.75607 35113 ft 491 kts 149°
2026-05-05 22:44 41.93603 23.80395 35102 ft 491 kts 149°
2026-05-05 22:44 41.87599 23.84675 35097 ft 488 kts 165°
2026-05-05 22:44 41.84286 23.85501 35084 ft 482 kts 180°
2026-05-05 22:45 41.80945 23.85503 35081 ft 480 kts 184°
2026-05-05 22:45 41.74268 23.85327 35074 ft 481 kts 184°
2026-05-05 22:46 41.67567 23.85126 35073 ft 482 kts 184°
2026-05-05 22:46 41.60852 23.84936 35064 ft 483 kts 184°
2026-05-05 22:47 41.54121 23.84764 35068 ft 484 kts 184°
2026-05-05 22:47 41.47377 23.84604 35065 ft 485 kts 184°
2026-05-05 22:48 41.40625 23.84426 35066 ft 485 kts 184°
2026-05-05 22:48 41.33865 23.84246 35061 ft 486 kts 184°
2026-05-05 22:49 41.27096 23.84069 35057 ft 486 kts 184°
2026-05-05 22:49 41.20365 23.83896 35055 ft 486 kts 184°
2026-05-05 22:50 41.13596 23.83720 35053 ft 487 kts 184°
2026-05-05 22:50 41.06826 23.83550 35051 ft 486 kts 184°
2026-05-05 22:51 41.00060 23.83375 35055 ft 486 kts 184°
2026-05-05 22:51 40.93287 23.83201 35058 ft 486 kts 184°
2026-05-05 22:52 40.86521 23.83029 35053 ft 486 kts 184°
2026-05-05 22:52 40.80898 23.82882 35058 ft 486 kts 185°
2026-05-05 22:53 40.74129 23.82704 35056 ft 486 kts 185°
2026-05-05 22:53 40.67365 23.82527 35054 ft 486 kts 185°
2026-05-05 22:54 40.60597 23.82357 35050 ft 487 kts 185°
2026-05-05 22:54 40.53820 23.82189 35047 ft 487 kts 185°
2026-05-05 22:55 40.47045 23.82019 35043 ft 487 kts 185°
2026-05-05 22:55 40.40268 23.81848 35042 ft 487 kts 185°
2026-05-05 22:56 40.33489 23.81677 35041 ft 488 kts 185°
2026-05-05 22:56 40.26702 23.81503 35041 ft 488 kts 185°
2026-05-05 22:57 40.19912 23.81336 35042 ft 488 kts 185°
2026-05-05 22:57 40.13126 23.81168 35041 ft 488 kts 185°
2026-05-05 22:58 40.06338 23.81004 35033 ft 488 kts 185°
2026-05-05 22:58 39.99587 23.80839 35036 ft 488 kts 186°
2026-05-05 22:59 39.92790 23.80653 35038 ft 489 kts 185°
2026-05-05 22:59 39.85969 23.80479 35036 ft 490 kts 186°
2026-05-05 23:00 39.75730 23.80239 35036 ft 491 kts 186°
2026-05-05 23:00 39.68881 23.80071 35039 ft 492 kts 186°
2026-05-05 23:01 39.62030 23.79894 35033 ft 493 kts 186°
2026-05-05 23:01 39.55162 23.79719 35033 ft 494 kts 186°
2026-05-05 23:02 39.48283 23.79560 35042 ft 494 kts 186°
2026-05-05 23:02 39.41448 23.79397 35043 ft 495 kts 186°
2026-05-05 23:03 39.34572 23.79224 35047 ft 494 kts 186°
2026-05-05 23:03 39.27686 23.79053 35048 ft 494 kts 186°
2026-05-05 23:04 39.20807 23.78889 35044 ft 494 kts 186°
2026-05-05 23:04 39.13933 23.78721 35055 ft 494 kts 186°
2026-05-05 23:05 39.07063 23.78547 35057 ft 494 kts 186°
2026-05-05 23:05 39.03624 23.78467 34919 ft 495 kts 186°
2026-05-05 23:05 39.00183 23.78390 34678 ft 495 kts 186°
2026-05-05 23:06 38.96731 23.78311 34447 ft 496 kts 186°
2026-05-05 23:06 38.93282 23.78227 34203 ft 497 kts 186°
2026-05-05 23:06 38.89819 23.78138 33957 ft 498 kts 186°
2026-05-05 23:06 38.86349 23.78050 33683 ft 499 kts 186°
2026-05-05 23:07 38.82918 23.77962 33397 ft 500 kts 186°
2026-05-05 23:07 38.79431 23.77873 32363 ft 506 kts 186°
2026-05-05 23:07 38.75880 23.77787 31261 ft 513 kts 186°
2026-05-05 23:07 38.72287 23.77701 30122 ft 519 kts 186°
2026-05-05 23:08 38.68653 23.77616 28965 ft 522 kts 186°
2026-05-05 23:08 38.65033 23.77538 27917 ft 515 kts 185°
2026-05-05 23:08 38.61460 23.77462 26122 ft 515 kts 185°
2026-05-05 23:08 38.57913 23.77380 25221 ft 503 kts 185°
2026-05-05 23:09 38.54439 23.77301 24484 ft 497 kts 185°
2026-05-05 23:09 38.50994 23.77220 23617 ft 495 kts 185°
2026-05-05 23:09 38.47559 23.77135 22719 ft 491 kts 185°
2026-05-05 23:09 38.44194 23.76850 21963 ft 479 kts 193°
2026-05-05 23:10 38.41021 23.75675 20988 ft 472 kts 206°
2026-05-05 23:10 38.38026 23.74117 20288 ft 466 kts 206°
2026-05-05 23:10 38.35018 23.72550 19571 ft 461 kts 206°
2026-05-05 23:10 38.32066 23.71015 18873 ft 457 kts 206°
2026-05-05 23:11 38.29134 23.69499 18178 ft 453 kts 205°
2026-05-05 23:11 38.26227 23.68001 17495 ft 447 kts 205°
2026-05-05 23:11 38.23349 23.66522 16820 ft 443 kts 205°
2026-05-05 23:11 38.20518 23.65072 16251 ft 436 kts 205°
2026-05-05 23:12 38.17722 23.63641 15670 ft 431 kts 204°
2026-05-05 23:12 38.14958 23.62224 15088 ft 426 kts 204°
2026-05-05 23:12 38.12227 23.60822 14478 ft 422 kts 204°
2026-05-05 23:12 38.09512 23.59431 13878 ft 418 kts 204°
2026-05-05 23:13 38.06861 23.58070 13225 ft 415 kts 204°
2026-05-05 23:13 38.04200 23.56703 12553 ft 411 kts 203°
2026-05-05 23:13 38.01557 23.55345 11893 ft 408 kts 203°
2026-05-05 23:13 37.98917 23.54345 11570 ft 382 kts 189°
2026-05-05 23:14 37.96369 23.54238 11423 ft 352 kts 174°
2026-05-05 23:14 37.94073 23.54880 11294 ft 326 kts 159°
2026-05-05 23:14 37.92012 23.55870 10976 ft 310 kts 158°
2026-05-05 23:14 37.90019 23.56847 10449 ft 304 kts 157°
2026-05-05 23:15 37.88059 23.57816 9877 ft 300 kts 157°
2026-05-05 23:15 37.86124 23.58773 9262 ft 296 kts 157°
2026-05-05 23:15 37.84218 23.59715 8631 ft 293 kts 158°
2026-05-05 23:15 37.82346 23.60637 8245 ft 280 kts 158°
2026-05-05 23:16 37.80594 23.61494 8079 ft 261 kts 158°
2026-05-05 23:16 37.78926 23.62312 7673 ft 254 kts 158°
2026-05-05 23:16 37.77324 23.63190 7188 ft 249 kts 147°
2026-05-05 23:16 37.75988 23.64549 6694 ft 245 kts 130°
2026-05-05 23:17 37.75050 23.66313 6181 ft 241 kts 113°
2026-05-05 23:17 37.74569 23.68325 5691 ft 239 kts 97°
2026-05-05 23:17 37.74401 23.70411 5192 ft 239 kts 95°
2026-05-05 23:17 37.74263 23.72497 4701 ft 238 kts 87°
2026-05-05 23:18 37.74630 23.74504 4417 ft 231 kts 62°
2026-05-05 23:18 37.75531 23.76099 4285 ft 221 kts 41°
2026-05-05 23:18 37.76732 23.77283 4033 ft 218 kts 35°
2026-05-05 23:18 37.77929 23.78410 3763 ft 211 kts 35°
2026-05-05 23:19 37.79088 23.79505 3482 ft 206 kts 35°
2026-05-05 23:19 37.80218 23.80574 3248 ft 199 kts 35°
2026-05-05 23:19 37.81318 23.81615 2971 ft 195 kts 34°
2026-05-05 23:19 37.82398 23.82636 2742 ft 193 kts 34°
2026-05-05 23:20 37.83463 23.83640 2516 ft 187 kts 34°
2026-05-05 23:20 37.84467 23.84592 2215 ft 172 kts 34°
2026-05-05 23:20 37.85361 23.85448 2051 ft 156 kts 34°
2026-05-05 23:20 37.86205 23.86254 1798 ft 149 kts 34°
2026-05-05 23:21 37.87039 23.87034 1548 ft 148 kts 34°
2026-05-05 23:21 37.87869 23.87815 1380 ft 148 kts 36°
2026-05-05 23:21 37.88685 23.88604 1217 ft 148 kts 35°
2026-05-05 23:21 37.89516 23.89381 1002 ft 149 kts 35°
2026-05-05 23:22 37.90337 23.90156 802 ft 146 kts 34°
2026-05-05 23:22 37.91129 23.90932 616 ft 141 kts 36°
2026-05-05 23:22 37.91912 23.91666 408 ft 139 kts 35°
2026-05-05 23:22 37.92671 23.92388 275 ft 128 kts 37°
2026-05-05 23:23 37.93289 23.92975 276 ft 96 kts 37°
2026-05-05 23:23 37.93676 23.93343 282 ft 41 kts 36°
2026-05-05 23:23 37.93845 23.93516 286 ft 24 kts 45°
2026-05-05 23:23 37.93929 23.93690 283 ft 22 kts 66°
2026-05-05 23:24 37.93991 23.93858 285 ft 20 kts 64°
2026-05-05 23:24 37.94056 23.93988 286 ft 17 kts 47°
2026-05-05 23:24 37.94153 23.94070 287 ft 17 kts 33°
2026-05-05 23:24 37.94244 23.94158 290 ft 16 kts 38°
2026-05-05 23:25 37.94335 23.94243 293 ft 16 kts 33°
2026-05-05 23:25 37.94421 23.94327 292 ft 15 kts 38°
2026-05-05 23:25 37.94502 23.94404 296 ft 14 kts 37°
2026-05-05 23:25 37.94575 23.94473 294 ft 12 kts 37°
2026-05-05 23:26 37.94636 23.94532 296 ft 10 kts 37°
2026-05-05 23:26 37.94683 23.94605 296 ft 14 kts 88°
2026-05-05 23:26 37.94618 23.94738 294 ft 18 kts 129°
2026-05-05 23:26 37.94542 23.94866 296 ft 18 kts 127°
2026-05-05 23:27 37.94472 23.94983 288 ft 16 kts 127°
2026-05-05 23:27 37.94411 23.95085 286 ft 14 kts 127°
2026-05-05 23:27 37.94361 23.95169 286 ft 10 kts 128°
2026-05-05 23:27 37.94340 23.95205 286 ft 4 kts 127°
2026-05-05 23:28 37.94323 23.95232 282 ft 3 kts 127°
2026-05-05 23:28 37.94312 23.95251 285 ft 1 kts 126°
2026-05-05 23:28 37.94311 23.95253 282 ft 0 kts 126°
2026-05-05 23:28 37.94310 23.95255 282 ft 1 kts 126°
2026-05-05 23:29 37.94303 23.95268 285 ft 4 kts 126°
2026-05-05 23:29 37.94266 23.95329 283 ft 16 kts 127°
2026-05-05 23:29 37.94199 23.95440 281 ft 15 kts 127°
2026-05-05 23:29 37.94139 23.95538 281 ft 14 kts 135°
2026-05-05 23:30 37.94062 23.95527 280 ft 12 kts 215°
2026-05-05 23:30 37.94020 23.95488 278 ft 11 kts 218°
2026-05-05 23:30 37.93952 23.95422 279 ft 8 kts 217°
2026-05-05 23:30 37.93907 23.95370 280 ft 12 kts 236°
2026-05-05 23:31 37.93868 23.95251 282 ft 16 kts 248°
2026-05-05 23:31 37.93810 23.95167 284 ft 10 kts 218°
2026-05-05 23:31 37.93764 23.95122 281 ft 7 kts 231°
2026-05-05 23:31 37.93763 23.95072 282 ft 5 kts 287°
2026-05-05 23:32 37.93778 23.95046 282 ft 3 kts 310°
2026-05-05 23:32 37.93787 23.95032 282 ft 1 kts 309°
2026-05-05 23:32 37.93794 23.95020 285 ft 3 kts 309°
2026-05-05 23:32 37.93798 23.95015 282 ft 0 kts 309°